| time (UTC) | temp C | wind direction | speed KPH | gust KPH | rain 1hr cm | rain 24hr cm | rain mn cm | humidity % | barometer mb |
| 20260507002752 | 25 | 242 | 11.3 | 17.7 | 0.00 | 0.00 | 0.00 | 71 | 1014.0 |
| 20260507002248 | 25 | 232 | 3.2 | 9.7 | 0.00 | 0.00 | 0.00 | 70 | 1014.0 |
| 20260507001745 | 25 | 261 | 4.8 | 16.1 | 0.00 | 0.00 | 0.00 | 70 | 1014.0 |
| 20260507001243 | 25 | 235 | 6.4 | 11.3 | 0.00 | 0.00 | 0.00 | 69 | 1013.7 |
| 20260507000739 | 25 | 282 | 4.8 | 9.7 | 0.00 | 0.00 | 0.00 | 70 | 1013.8 |
| 20260507000235 | 25 | 253 | 6.4 | 20.9 | 0.00 | 0.00 | 0.00 | 69 | 1013.7 |
| 20260506235731 | 25 | 242 | 8.0 | 17.7 | 0.00 | 0.00 | 0.00 | 69 | 1013.8 |
| 20260506235226 | 25 | 242 | 1.6 | 6.4 | 0.00 | 0.00 | 0.00 | 68 | 1013.7 |
| 20260506234723 | 26 | 231 | 8.0 | 9.7 | 0.00 | 0.00 | 0.00 | 68 | 1013.7 |
| 20260506234220 | 26 | 224 | 8.0 | 12.9 | 0.00 | 0.00 | 0.00 | 67 | 1013.6 |
| 20260506232224 | 26 | 200 | 6.4 | 12.9 | 0.00 | 0.00 | 0.00 | 68 | 1013.6 |
| 20260506231722 | 26 | 200 | 6.4 | 12.9 | 0.00 | 0.00 | 0.00 | 68 | 1013.6 |
| 20260506231220 | 26 | 226 | 8.0 | 22.5 | 0.00 | 0.00 | 0.00 | 69 | 1013.6 |
| 20260506230716 | 26 | 247 | 6.4 | 6.4 | 0.00 | 0.00 | 0.00 | 69 | 1013.6 |
| 20260506230213 | 27 | 237 | 4.8 | 24.1 | 0.00 | 0.00 | 0.00 | 68 | 1013.7 |
| 20260506225710 | 27 | 222 | 6.4 | 14.5 | 0.00 | 0.00 | 0.00 | 69 | 1013.6 |
| 20260506225207 | 27 | 225 | 11.3 | 16.1 | 0.00 | 0.00 | 0.00 | 67 | 1013.8 |
| 20260506224703 | 27 | 213 | 12.9 | 25.7 | 0.00 | 0.00 | 0.00 | 67 | 1013.8 |
| 20260506224201 | 27 | 233 | 6.4 | 11.3 | 0.00 | 0.00 | 0.00 | 67 | 1013.9 |
| 20260506223656 | 27 | 191 | 8.0 | 12.9 | 0.00 | 0.00 | 0.00 | 67 | 1013.7 |
| 20260506223152 | 27 | 236 | 9.7 | 16.1 | 0.00 | 0.00 | 0.00 | 67 | 1013.9 |
| 20260506222650 | 27 | 226 | 14.5 | 24.1 | 0.00 | 0.00 | 0.00 | 68 | 1013.6 |
| 20260506222145 | 27 | 189 | 12.9 | 22.5 | 0.00 | 0.00 | 0.00 | 69 | 1014.0 |
| 20260506221644 | 27 | 264 | 8.0 | 12.9 | 0.00 | 0.00 | 0.00 | 69 | 1013.8 |
| 20260506221141 | 27 | 208 | 9.7 | 20.9 | 0.00 | 0.00 | 0.00 | 70 | 1013.7 |
| 20260506220638 | 27 | 238 | 6.4 | 22.5 | 0.00 | 0.00 | 0.00 | 70 | 1013.7 |
| 20260506220133 | 27 | 247 | 6.4 | 22.5 | 0.00 | 0.00 | 0.00 | 70 | 1013.4 |
| 20260506215630 | 27 | 242 | 6.4 | 12.9 | 0.00 | 0.00 | 0.00 | 70 | 1013.6 |
| 20260506215125 | 27 | 201 | 8.0 | 11.3 | 0.00 | 0.00 | 0.00 | 70 | 1013.7 |
| 20260506214622 | 27 | 231 | 6.4 | 17.7 | 0.00 | 0.00 | 0.00 | 70 | 1013.6 |
| 20260506214120 | 28 | 237 | 4.8 | 14.5 | 0.00 | 0.00 | 0.00 | 69 | 1013.7 |
| 20260506213618 | 28 | 209 | 6.4 | 14.5 | 0.00 | 0.00 | 0.00 | 69 | 1013.8 |
| 20260506213115 | 28 | 215 | 6.4 | 14.5 | 0.00 | 0.00 | 0.00 | 68 | 1013.7 |
| 20260506212612 | 28 | 201 | 9.7 | 22.5 | 0.00 | 0.00 | 0.00 | 68 | 1013.8 |
| 20260506212107 | 28 | 190 | 8.0 | 11.3 | 0.00 | 0.00 | 0.00 | 67 | 1013.9 |
| 20260506211603 | 28 | 229 | 4.8 | 12.9 | 0.00 | 0.00 | 0.00 | 70 | 1013.8 |
| 20260506211100 | 27 | 240 | 4.8 | 12.9 | 0.00 | 0.00 | 0.00 | 71 | 1013.8 |
| 20260506210556 | 27 | 206 | 9.7 | 16.1 | 0.00 | 0.00 | 0.00 | 71 | 1014.1 |
| 20260506210053 | 28 | 236 | 6.4 | 17.7 | 0.00 | 0.00 | 0.00 | 70 | 1014.0 |
| 20260506205550 | 28 | 230 | 6.4 | 16.1 | 0.00 | 0.00 | 0.00 | 70 | 1014.0 |
| 20260506205045 | 28 | 224 | 14.5 | 22.5 | 0.00 | 0.00 | 0.00 | 70 | 1013.9 |
| 20260506204543 | 28 | 184 | 14.5 | 20.9 | 0.00 | 0.00 | 0.00 | 70 | 1014.0 |
| 20260506204040 | 28 | 212 | 4.8 | 9.7 | 0.00 | 0.00 | 0.00 | 69 | 1013.9 |
| 20260506203538 | 28 | 220 | 6.4 | 12.9 | 0.00 | 0.00 | 0.00 | 68 | 1013.9 |
| 20260506203034 | 28 | 206 | 6.4 | 14.5 | 0.00 | 0.00 | 0.00 | 69 | 1014.0 |
| 20260506202532 | 28 | 222 | 11.3 | 16.1 | 0.00 | 0.00 | 0.00 | 69 | 1013.9 |
| 20260506202028 | 28 | 179 | 6.4 | 11.3 | 0.00 | 0.00 | 0.00 | 69 | 1014.1 |
| 20260506201526 | 28 | 199 | 4.8 | 12.9 | 0.00 | 0.00 | 0.00 | 68 | 1014.1 |
| 20260506201022 | 28 | 225 | 6.4 | 14.5 | 0.00 | 0.00 | 0.00 | 68 | 1014.4 |
| 20260506200518 | 28 | 233 | 8.0 | 12.9 | 0.00 | 0.00 | 0.00 | 68 | 1014.2 |
| 20260506200015 | 28 | 214 | 9.7 | 12.9 | 0.00 | 0.00 | 0.00 | 69 | 1014.3 |
| 20260506195512 | 28 | 221 | 6.4 | 12.9 | 0.00 | 0.00 | 0.00 | 70 | 1014.4 |
| 20260506195009 | 28 | 247 | 6.4 | 14.5 | 0.00 | 0.00 | 0.00 | 70 | 1014.3 |
| 20260506194506 | 28 | 219 | 6.4 | 14.5 | 0.00 | 0.00 | 0.00 | 70 | 1014.8 |
| 20260506194002 | 29 | 221 | 6.4 | 11.3 | 0.00 | 0.00 | 0.00 | 68 | 1014.7 |
| 20260506193500 | 28 | 271 | 8.0 | 12.9 | 0.00 | 0.00 | 0.00 | 68 | 1014.6 |
| 20260506192956 | 28 | 272 | 8.0 | 16.1 | 0.00 | 0.00 | 0.00 | 68 | 1014.9 |
| 20260506192454 | 28 | 219 | 6.4 | 14.5 | 0.00 | 0.00 | 0.00 | 69 | 1014.9 |
| 20260506191950 | 29 | 212 | 14.5 | 20.9 | 0.00 | 0.00 | 0.00 | 67 | 1015.0 |
| 20260506191447 | 28 | 240 | 11.3 | 16.1 | 0.00 | 0.00 | 0.00 | 69 | 1014.8 |
| 20260506190943 | 28 | 206 | 6.4 | 17.7 | 0.00 | 0.00 | 0.00 | 68 | 1015.0 |
| 20260506190440 | 28 | 223 | 1.6 | 17.7 | 0.00 | 0.00 | 0.00 | 69 | 1015.0 |
| 20260506185937 | 28 | 205 | 3.2 | 14.5 | 0.00 | 0.00 | 0.00 | 68 | 1015.0 |
| 20260506185434 | 29 | 203 | 6.4 | 14.5 | 0.00 | 0.00 | 0.00 | 67 | 1015.2 |
| 20260506184931 | 29 | 228 | 6.4 | 11.3 | 0.00 | 0.00 | 0.00 | 65 | 1015.2 |
| 20260506184427 | 29 | 247 | 4.8 | 11.3 | 0.00 | 0.00 | 0.00 | 67 | 1015.4 |
| 20260506183925 | 29 | 192 | 6.4 | 12.9 | 0.00 | 0.00 | 0.00 | 66 | 1015.2 |
| 20260506183420 | 28 | 206 | 8.0 | 12.9 | 0.00 | 0.00 | 0.00 | 67 | 1015.4 |
| 20260506182918 | 30 | 212 | 6.4 | 12.9 | 0.00 | 0.00 | 0.00 | 62 | 1015.4 |
| 20260506182415 | 31 | 278 | 1.6 | 3.2 | 0.00 | 0.00 | 0.00 | 58 | 1015.6 |
| 20260506181912 | 32 | 222 | 4.8 | 6.4 | 0.00 | 0.00 | 0.00 | 59 | 1015.6 |
| 20260506181410 | 31 | 151 | 4.8 | 6.4 | 0.00 | 0.00 | 0.00 | 55 | 1015.5 |
| 20260506180907 | 32 | 248 | 1.6 | 4.8 | 0.00 | 0.00 | 0.00 | 52 | 1015.7 |
| 20260506180402 | 31 | 230 | 0.0 | 4.8 | 0.00 | 0.00 | 0.00 | 52 | 1015.6 |
| 20260506175859 | 31 | 350 | 1.6 | 3.2 | 0.00 | 0.00 | 0.00 | 51 | 1015.5 |
| 20260506175356 | 30 | 243 | 0.0 | 6.4 | 0.00 | 0.00 | 0.00 | 56 | 1015.6 |
| 20260506174853 | 31 | 42 | 1.6 | 9.7 | 0.00 | 0.00 | 0.00 | 53 | 1015.7 |
| 20260506174351 | 31 | 289 | 3.2 | 6.4 | 0.00 | 0.00 | 0.00 | 53 | 1015.7 |
| 20260506173848 | 31 | 218 | 6.4 | 12.9 | 0.00 | 0.00 | 0.00 | 56 | 1015.7 |
| 20260506173344 | 31 | 200 | 3.2 | 6.4 | 0.00 | 0.00 | 0.00 | 54 | 1015.9 |
| 20260506172842 | 30 | 323 | 1.6 | 9.7 | 0.00 | 0.00 | 0.00 | 57 | 1016.1 |
| 20260506172338 | 30 | 266 | 3.2 | 6.4 | 0.00 | 0.00 | 0.00 | 56 | 1016.0 |
| 20260506171836 | 30 | 9 | 3.2 | 12.9 | 0.00 | 0.00 | 0.00 | 57 | 1016.1 |
| 20260506171332 | 30 | 272 | 6.4 | 9.7 | 0.00 | 0.00 | 0.00 | 58 | 1016.3 |
| 20260506170825 | 31 | 265 | 6.4 | 9.7 | 0.00 | 0.00 | 0.00 | 55 | 1016.3 |
| 20260506170320 | 30 | 236 | 1.6 | 11.3 | 0.00 | 0.00 | 0.00 | 58 | 1016.5 |
| 20260506165820 | 30 | 249 | 9.7 | 20.9 | 0.00 | 0.00 | 0.00 | 56 | 1016.4 |
| 20260506165317 | 30 | 226 | 0.0 | 11.3 | 0.00 | 0.00 | 0.00 | 57 | 1016.5 |
| 20260506164814 | 30 | 289 | 1.6 | 4.8 | 0.00 | 0.00 | 0.00 | 58 | 1016.6 |
| 20260506164310 | 30 | 256 | 1.6 | 6.4 | 0.00 | 0.00 | 0.00 | 57 | 1016.8 |
| 20260506163808 | 30 | 295 | 3.2 | 6.4 | 0.00 | 0.00 | 0.00 | 57 | 1016.8 |
| 20260506163302 | 30 | 307 | 1.6 | 6.4 | 0.00 | 0.00 | 0.00 | 59 | 1016.7 |
| 20260506162758 | 30 | 290 | 6.4 | 11.3 | 0.00 | 0.00 | 0.00 | 58 | 1016.7 |
| 20260506162256 | 29 | 329 | 6.4 | 9.7 | 0.00 | 0.00 | 0.00 | 59 | 1016.7 |
| 20260506161752 | 30 | 253 | 3.2 | 6.4 | 0.00 | 0.00 | 0.00 | 59 | 1016.7 |
| 20260506161250 | 30 | 336 | 6.4 | 12.9 | 0.00 | 0.00 | 0.00 | 59 | 1016.9 |
| 20260506160747 | 28 | 358 | 3.2 | 11.3 | 0.00 | 0.00 | 0.00 | 61 | 1016.8 |
| 20260506160243 | 28 | 302 | 4.8 | 11.3 | 0.00 | 0.00 | 0.00 | 60 | 1016.7 |
| 20260506155743 | 28 | 237 | 9.7 | 12.9 | 0.00 | 0.00 | 0.00 | 60 | 1016.7 |
| 20260506155239 | 29 | 296 | 4.8 | 11.3 | 0.00 | 0.00 | 0.00 | 60 | 1016.9 |
| 20260506153347 | 28 | 281 | 3.2 | 4.8 | 0.00 | 0.00 | 0.00 | 63 | 1016.5 |
| 20260506152843 | 28 | 199 | 9.7 | 14.5 | 0.00 | 0.00 | 0.00 | 63 | 1016.6 |
| 20260506152341 | 28 | 274 | 3.2 | 4.8 | 0.00 | 0.00 | 0.00 | 61 | 1016.8 |
| 20260506151839 | 28 | 310 | 1.6 | 12.9 | 0.00 | 0.00 | 0.00 | 63 | 1016.7 |
| 20260506151335 | 28 | 235 | 3.2 | 12.9 | 0.00 | 0.00 | 0.00 | 63 | 1016.8 |
| 20260506150833 | 27 | 260 | 1.6 | 4.8 | 0.00 | 0.00 | 0.00 | 63 | 1016.8 |
| 20260506150330 | 27 | 213 | 3.2 | 6.4 | 0.00 | 0.00 | 0.00 | 65 | 1016.8 |
| 20260506145826 | 27 | 274 | 6.4 | 9.7 | 0.00 | 0.00 | 0.00 | 63 | 1016.6 |
| 20260506145323 | 27 | 255 | 3.2 | 4.8 | 0.00 | 0.00 | 0.00 | 67 | 1016.6 |
| 20260506144820 | 27 | 249 | 1.6 | 6.4 | 0.00 | 0.00 | 0.00 | 67 | 1016.6 |
| 20260506144317 | 27 | 234 | 1.6 | 4.8 | 0.00 | 0.00 | 0.00 | 65 | 1016.6 |
| 20260506143816 | 27 | 253 | 1.6 | 9.7 | 0.00 | 0.00 | 0.00 | 66 | 1016.5 |
| 20260506143312 | 27 | 339 | 3.2 | 6.4 | 0.00 | 0.00 | 0.00 | 67 | 1016.6 |
| 20260506142810 | 27 | 261 | 1.6 | 3.2 | 0.00 | 0.00 | 0.00 | 67 | 1016.5 |
| 20260506142308 | 27 | 245 | 3.2 | 4.8 | 0.00 | 0.00 | 0.00 | 68 | 1016.5 |
| 20260506141806 | 27 | 242 | 3.2 | 4.8 | 0.00 | 0.00 | 0.00 | 67 | 1016.6 |
| 20260506141304 | 27 | 297 | 1.6 | 4.8 | 0.00 | 0.00 | 0.00 | 70 | 1016.7 |
| 20260506140801 | 26 | 249 | 1.6 | 6.4 | 0.00 | 0.00 | 0.00 | 71 | 1016.7 |
| 20260506140258 | 26 | 275 | 4.8 | 6.4 | 0.00 | 0.00 | 0.00 | 72 | 1016.7 |
| 20260506135755 | 25 | 297 | 3.2 | 9.7 | 0.00 | 0.00 | 0.00 | 73 | 1016.6 |
| 20260506135251 | 26 | 301 | 4.8 | 12.9 | 0.00 | 0.00 | 0.00 | 72 | 1016.7 |
| 20260506134748 | 26 | 247 | 1.6 | 4.8 | 0.00 | 0.00 | 0.00 | 73 | 1016.7 |
| 20260506134244 | 26 | 290 | 1.6 | 3.2 | 0.00 | 0.00 | 0.00 | 74 | 1016.7 |
| 20260506133742 | 25 | 293 | 11.3 | 12.9 | 0.00 | 0.00 | 0.00 | 74 | 1016.7 |
| 20260506133238 | 25 | 284 | 1.6 | 6.4 | 0.00 | 0.00 | 0.00 | 76 | 1016.7 |
| 20260506132735 | 25 | 280 | 3.2 | 3.2 | 0.00 | 0.00 | 0.00 | 76 | 1016.7 |
| 20260506132232 | 25 | 225 | 0.0 | 1.6 | 0.00 | 0.00 | 0.00 | 76 | 1016.8 |
| 20260506131730 | 24 | 280 | 1.6 | 4.8 | 0.00 | 0.00 | 0.00 | 78 | 1016.7 |
| 20260506131226 | 23 | 249 | 1.6 | 6.4 | 0.00 | 0.00 | 0.00 | 79 | 1016.4 |
| 20260506130723 | 23 | 225 | 3.2 | 4.8 | 0.00 | 0.00 | 0.00 | 78 | 1016.4 |
| 20260506130220 | 23 | 251 | 3.2 | 4.8 | 0.00 | 0.00 | 0.00 | 79 | 1016.3 |
| 20260506125718 | 23 | 278 | 1.6 | 3.2 | 0.00 | 0.00 | 0.00 | 79 | 1016.6 |
| 20260506125216 | 23 | 287 | 3.2 | 4.8 | 0.00 | 0.00 | 0.00 | 78 | 1016.4 |
| 20260506124714 | 23 | 247 | 3.2 | 4.8 | 0.00 | 0.00 | 0.00 | 79 | 1016.5 |
| 20260506124211 | 23 | 228 | 3.2 | 6.4 | 0.00 | 0.00 | 0.00 | 79 | 1016.4 |
| 20260506123708 | 22 | 290 | 3.2 | 4.8 | 0.00 | 0.00 | 0.00 | 80 | 1016.3 |
| 20260506123207 | 22 | 284 | 3.2 | 3.2 | 0.00 | 0.00 | 0.00 | 81 | 1016.4 |
| 20260506122703 | 22 | 287 | 6.4 | 9.7 | 0.00 | 0.00 | 0.00 | 82 | 1016.2 |
| 20260506122201 | 21 | 272 | 3.2 | 4.8 | 0.00 | 0.00 | 0.00 | 83 | 1016.1 |
| 20260506121659 | 21 | 290 | 0.0 | 1.6 | 0.00 | 0.00 | 0.00 | 84 | 1016.2 |
| 20260506121155 | 21 | 257 | 0.0 | 3.2 | 0.00 | 0.00 | 0.00 | 86 | 1016.1 |
| 20260506120653 | 20 | 268 | 0.0 | 0.0 | 0.00 | 0.00 | 0.00 | 87 | 1016.3 |
| 20260506120150 | 20 | 267 | 3.2 | 3.2 | 0.00 | 0.00 | 0.00 | 87 | 1016.0 |
| 20260506115648 | 20 | 279 | 1.6 | 3.2 | 0.00 | 0.00 | 0.00 | 88 | 1015.9 |
| 20260506115146 | 19 | 275 | 3.2 | 3.2 | 0.00 | 0.00 | 0.00 | 89 | 1015.9 |
| 20260506114643 | 19 | 264 | 0.0 | 0.0 | 0.00 | 0.00 | 0.00 | 90 | 1015.9 |
| 20260506114141 | 18 | 264 | 0.0 | 1.6 | 0.00 | 0.00 | 0.00 | 90 | 1016.0 |
| 20260506113640 | 18 | 261 | 0.0 | 0.0 | 0.00 | 0.00 | 0.00 | 91 | 1015.8 |
| 20260506113136 | 18 | 240 | 0.0 | 0.0 | 0.00 | 0.00 | 0.00 | 92 | 1015.9 |
| 20260506112632 | 17 | 240 | 0.0 | 0.0 | 0.00 | 0.00 | 0.00 | 93 | 1015.8 |
| 20260506112130 | 17 | 240 | 0.0 | 0.0 | 0.00 | 0.00 | 0.00 | 93 | 1015.6 |
| 20260506111628 | 17 | 240 | 0.0 | 0.0 | 0.00 | 0.00 | 0.00 | 93 | 1015.6 |
| 20260506111125 | 17 | 240 | 0.0 | 1.6 | 0.00 | 0.00 | 0.00 | 94 | 1015.7 |
| 20260506110622 | 17 | 240 | 0.0 | 0.0 | 0.00 | 0.00 | 0.00 | 94 | 1015.5 |
| 20260506110119 | 17 | 240 | 0.0 | 0.0 | 0.00 | 0.00 | 0.00 | 94 | 1015.9 |
| 20260506105616 | 17 | 240 | 0.0 | 0.0 | 0.00 | 0.00 | 0.00 | 94 | 1015.6 |
| 20260506105113 | 17 | 240 | 0.0 | 0.0 | 0.00 | 0.00 | 0.00 | 94 | 1015.7 |
| 20260506104611 | 17 | 239 | 0.0 | 0.0 | 0.00 | 0.00 | 0.00 | 94 | 1015.3 |
| 20260506104108 | 17 | 239 | 0.0 | 0.0 | 0.00 | 0.00 | 0.00 | 94 | 1015.5 |
| 20260506103606 | 17 | 239 | 0.0 | 0.0 | 0.00 | 0.00 | 0.00 | 94 | 1015.2 |
| 20260506103102 | 16 | 239 | 0.0 | 0.0 | 0.00 | 0.00 | 0.00 | 94 | 1015.3 |
| 20260506102601 | 16 | 239 | 0.0 | 0.0 | 0.00 | 0.00 | 0.00 | 93 | 1015.3 |
| 20260506102058 | 17 | 239 | 0.0 | 0.0 | 0.00 | 0.00 | 0.00 | 93 | 1015.5 |
| 20260506101554 | 16 | 239 | 0.0 | 0.0 | 0.00 | 0.00 | 0.00 | 94 | 1015.3 |
| 20260506101051 | 16 | 239 | 0.0 | 0.0 | 0.00 | 0.00 | 0.00 | 93 | 1015.3 |
| 20260506100550 | 16 | 239 | 0.0 | 0.0 | 0.00 | 0.00 | 0.00 | 93 | 1015.3 |
| 20260506100047 | 16 | 239 | 0.0 | 0.0 | 0.00 | 0.00 | 0.00 | 93 | 1015.2 |
| 20260506095546 | 16 | 239 | 0.0 | 0.0 | 0.00 | 0.00 | 0.00 | 93 | 1015.5 |
| 20260506095042 | 16 | 239 | 0.0 | 0.0 | 0.00 | 0.00 | 0.00 | 93 | 1015.7 |
| 20260506094540 | 16 | 239 | 0.0 | 0.0 | 0.00 | 0.00 | 0.00 | 93 | 1015.1 |
| 20260506094038 | 16 | 239 | 0.0 | 0.0 | 0.00 | 0.00 | 0.00 | 93 | 1015.3 |
| 20260506093536 | 16 | 238 | 0.0 | 0.0 | 0.00 | 0.00 | 0.00 | 92 | 1015.4 |
| 20260506093033 | 16 | 238 | 0.0 | 0.0 | 0.00 | 0.00 | 0.00 | 92 | 1015.4 |
| 20260506092531 | 16 | 238 | 0.0 | 0.0 | 0.00 | 0.00 | 0.00 | 92 | 1015.2 |
| 20260506092027 | 16 | 239 | 0.0 | 0.0 | 0.00 | 0.00 | 0.00 | 92 | 1015.0 |
| 20260506091526 | 17 | 238 | 0.0 | 0.0 | 0.00 | 0.00 | 0.00 | 91 | 1014.9 |
| 20260506091022 | 17 | 238 | 0.0 | 0.0 | 0.00 | 0.00 | 0.00 | 91 | 1015.2 |
| 20260506090520 | 17 | 238 | 0.0 | 0.0 | 0.00 | 0.00 | 0.00 | 91 | 1015.2 |
| 20260506090016 | 17 | 238 | 0.0 | 1.6 | 0.00 | 0.00 | 0.00 | 91 | 1015.2 |
| 20260506085513 | 17 | 238 | 0.0 | 0.0 | 0.00 | 0.00 | 0.00 | 90 | 1015.2 |
| 20260506085010 | 17 | 238 | 0.0 | 0.0 | 0.00 | 0.00 | 0.00 | 90 | 1015.1 |
| 20260506084507 | 17 | 238 | 0.0 | 0.0 | 0.00 | 0.00 | 0.00 | 90 | 1015.1 |
| 20260506084002 | 17 | 238 | 0.0 | 0.0 | 0.00 | 0.00 | 0.00 | 90 | 1015.1 |
| 20260506083500 | 17 | 238 | 0.0 | 0.0 | 0.00 | 0.00 | 0.00 | 90 | 1015.0 |
| 20260506082957 | 17 | 238 | 0.0 | 0.0 | 0.00 | 0.00 | 0.00 | 89 | 1015.0 |
| 20260506082454 | 17 | 238 | 0.0 | 0.0 | 0.00 | 0.00 | 0.00 | 89 | 1015.2 |
| 20260506081950 | 17 | 238 | 0.0 | 0.0 | 0.00 | 0.00 | 0.00 | 89 | 1015.1 |
| 20260506081448 | 17 | 238 | 0.0 | 0.0 | 0.00 | 0.00 | 0.00 | 89 | 1015.3 |
| 20260506080945 | 17 | 238 | 0.0 | 0.0 | 0.00 | 0.00 | 0.00 | 88 | 1015.0 |
| 20260506080442 | 17 | 238 | 0.0 | 0.0 | 0.00 | 0.00 | 0.00 | 88 | 1015.0 |
| 20260506073426 | 16 | 234 | 0.0 | 0.0 | 0.00 | 0.00 | 0.00 | 90 | 1014.7 |
| 20260506072923 | 16 | 234 | 0.0 | 0.0 | 0.00 | 0.00 | 0.00 | 90 | 1014.9 |
| 20260506072420 | 16 | 234 | 0.0 | 0.0 | 0.00 | 0.00 | 0.00 | 89 | 1015.3 |
| 20260506071918 | 16 | 234 | 0.0 | 0.0 | 0.00 | 0.00 | 0.00 | 89 | 1015.2 |
| 20260506071416 | 16 | 234 | 0.0 | 0.0 | 0.00 | 0.00 | 0.00 | 88 | 1015.2 |
| 20260506070912 | 17 | 234 | 0.0 | 0.0 | 0.00 | 0.00 | 0.00 | 88 | 1015.4 |
| 20260506070409 | 17 | 234 | 0.0 | 0.0 | 0.00 | 0.00 | 0.00 | 88 | 1015.3 |
| 20260506062347 | 17 | 234 | 0.0 | 0.0 | 0.00 | 0.00 | 0.00 | 87 | 1015.5 |
| 20260506061843 | 17 | 234 | 0.0 | 0.0 | 0.00 | 0.00 | 0.00 | 87 | 1015.6 |
| 20260506061339 | 17 | 234 | 0.0 | 0.0 | 0.00 | 0.00 | 0.00 | 87 | 1015.6 |
| 20260506060838 | 17 | 234 | 0.0 | 0.0 | 0.00 | 0.00 | 0.00 | 88 | 1015.6 |
| 20260506060335 | 17 | 234 | 0.0 | 0.0 | 0.00 | 0.00 | 0.00 | 89 | 1015.8 |
| 20260506051307 | 16 | 234 | 0.0 | 0.0 | 0.00 | 0.00 | 0.00 | 92 | 1016.2 |
| 20260506050805 | 16 | 234 | 0.0 | 0.0 | 0.00 | 0.00 | 0.00 | 91 | 1016.1 |
| 20260506050302 | 16 | 234 | 0.0 | 0.0 | 0.00 | 0.00 | 0.00 | 91 | 1016.0 |
| 20260506044752 | 17 | 234 | 0.0 | 0.0 | 0.00 | 0.00 | 0.00 | 90 | 1016.2 |
| 20260506044250 | 17 | 234 | 0.0 | 0.0 | 0.00 | 0.00 | 0.00 | 89 | 1016.4 |
| 20260506043747 | 17 | 234 | 0.0 | 0.0 | 0.00 | 0.00 | 0.00 | 89 | 1016.3 |
| 20260506043244 | 17 | 234 | 0.0 | 0.0 | 0.00 | 0.00 | 0.00 | 89 | 1016.2 |
| 20260506042743 | 17 | 234 | 0.0 | 0.0 | 0.00 | 0.00 | 0.00 | 89 | 1016.1 |
| 20260506042242 | 17 | 234 | 0.0 | 0.0 | 0.00 | 0.00 | 0.00 | 88 | 1016.2 |
| 20260506041739 | 17 | 234 | 0.0 | 0.0 | 0.00 | 0.00 | 0.00 | 87 | 1016.5 |
| 20260506041236 | 17 | 234 | 0.0 | 0.0 | 0.00 | 0.00 | 0.00 | 87 | 1016.3 |
| 20260506040734 | 18 | 234 | 0.0 | 0.0 | 0.00 | 0.00 | 0.00 | 87 | 1016.5 |
| 20260506040231 | 17 | 234 | 0.0 | 0.0 | 0.00 | 0.00 | 0.00 | 87 | 1016.3 |
| 20260506035727 | 17 | 234 | 0.0 | 0.0 | 0.00 | 0.00 | 0.00 | 87 | 1016.2 |
| 20260506035224 | 18 | 234 | 0.0 | 0.0 | 0.00 | 0.00 | 0.00 | 86 | 1016.5 |
| 20260506034721 | 18 | 234 | 0.0 | 0.0 | 0.00 | 0.00 | 0.00 | 85 | 1016.3 |
| 20260506034218 | 18 | 234 | 0.0 | 0.0 | 0.00 | 0.00 | 0.00 | 84 | 1016.4 |
| 20260506033716 | 18 | 234 | 0.0 | 0.0 | 0.00 | 0.00 | 0.00 | 83 | 1016.4 |
| 20260506033212 | 19 | 234 | 0.0 | 0.0 | 0.00 | 0.00 | 0.00 | 82 | 1016.2 |
| 20260506032709 | 19 | 234 | 0.0 | 0.0 | 0.00 | 0.00 | 0.00 | 82 | 1016.4 |
| 20260506032206 | 19 | 234 | 0.0 | 0.0 | 0.00 | 0.00 | 0.00 | 81 | 1016.2 |
| 20260506031703 | 20 | 234 | 0.0 | 0.0 | 0.00 | 0.00 | 0.00 | 81 | 1016.1 |
| 20260506031200 | 20 | 234 | 0.0 | 0.0 | 0.00 | 0.00 | 0.00 | 81 | 1016.0 |
| 20260506030659 | 20 | 233 | 0.0 | 0.0 | 0.00 | 0.00 | 0.00 | 80 | 1015.8 |
| 20260506030155 | 20 | 233 | 0.0 | 0.0 | 0.00 | 0.00 | 0.00 | 80 | 1015.9 |
| 20260506025646 | 20 | 233 | 0.0 | 1.6 | 0.00 | 0.00 | 0.00 | 79 | 1015.6 |
| 20260506025142 | 20 | 233 | 0.0 | 0.0 | 0.00 | 0.00 | 0.00 | 79 | 1015.9 |
| 20260506024640 | 20 | 233 | 0.0 | 0.0 | 0.00 | 0.00 | 0.00 | 79 | 1015.7 |
| 20260506024136 | 20 | 233 | 0.0 | 0.0 | 0.00 | 0.00 | 0.00 | 78 | 1015.8 |
| 20260506023633 | 20 | 233 | 0.0 | 0.0 | 0.00 | 0.00 | 0.00 | 77 | 1015.7 |
| 20260506023130 | 21 | 233 | 0.0 | 1.6 | 0.00 | 0.00 | 0.00 | 76 | 1015.7 |
| 20260506022627 | 21 | 232 | 0.0 | 1.6 | 0.00 | 0.00 | 0.00 | 76 | 1015.6 |
| 20260506022125 | 21 | 228 | 1.6 | 1.6 | 0.00 | 0.00 | 0.00 | 75 | 1015.4 |
| 20260506021622 | 21 | 227 | 1.6 | 3.2 | 0.00 | 0.00 | 0.00 | 75 | 1015.5 |
| 20260506021119 | 21 | 229 | 0.0 | 1.6 | 0.00 | 0.00 | 0.00 | 75 | 1015.6 |
| 20260506020616 | 20 | 229 | 1.6 | 1.6 | 0.00 | 0.00 | 0.00 | 76 | 1015.6 |
| 20260506020114 | 20 | 229 | 0.0 | 1.6 | 0.00 | 0.00 | 0.00 | 75 | 1015.6 |
| 20260506015611 | 20 | 226 | 6.4 | 6.4 | 0.00 | 0.00 | 0.00 | 75 | 1015.4 |
| 20260506015108 | 20 | 225 | 0.0 | 1.6 | 0.00 | 0.00 | 0.00 | 75 | 1015.6 |
| 20260506014606 | 20 | 225 | 0.0 | 0.0 | 0.00 | 0.00 | 0.00 | 74 | 1015.3 |
| 20260506014101 | 21 | 225 | 0.0 | 1.6 | 0.00 | 0.00 | 0.00 | 73 | 1015.5 |
| 20260506013559 | 21 | 213 | 1.6 | 4.8 | 0.00 | 0.00 | 0.00 | 72 | 1015.3 |
| 20260506013056 | 21 | 214 | 3.2 | 3.2 | 0.00 | 0.00 | 0.00 | 72 | 1015.3 |
| 20260506012552 | 21 | 221 | 0.0 | 1.6 | 0.00 | 0.00 | 0.00 | 71 | 1015.4 |
| 20260506012049 | 21 | 222 | 1.6 | 1.6 | 0.00 | 0.00 | 0.00 | 70 | 1015.5 |
| 20260506011547 | 21 | 223 | 1.6 | 4.8 | 0.00 | 0.00 | 0.00 | 70 | 1015.6 |
| 20260506011042 | 21 | 202 | 4.8 | 6.4 | 0.00 | 0.00 | 0.00 | 70 | 1015.4 |
| 20260506010536 | 21 | 223 | 0.0 | 1.6 | 0.00 | 0.00 | 0.00 | 70 | 1015.4 |
| 20260506010032 | 21 | 224 | 1.6 | 3.2 | 0.00 | 0.00 | 0.00 | 69 | 1015.1 |
| 20260506005529 | 21 | 231 | 1.6 | 6.4 | 0.00 | 0.00 | 0.00 | 69 | 1015.0 |
| 20260506005025 | 21 | 227 | 0.0 | 4.8 | 0.00 | 0.00 | 0.00 | 68 | 1015.0 |
| 20260506004523 | 22 | 238 | 1.6 | 6.4 | 0.00 | 0.00 | 0.00 | 68 | 1015.4 |
| 20260506004019 | 22 | 232 | 0.0 | 3.2 | 0.00 | 0.00 | 0.00 | 68 | 1015.2 |
| 20260506003515 | 22 | 222 | 1.6 | 3.2 | 0.00 | 0.00 | 0.00 | 69 | 1015.3 |
| 20260506003011 | 22 | 207 | 3.2 | 6.4 | 0.00 | 0.00 | 0.00 | 69 | 1015.2 |